TimeAKST,TemperatureF,Dew PointF,Humidity,Sea Level PressureIn,VisibilityMPH,Wind Direction,Wind SpeedMPH,Gust SpeedMPH,PrecipitationIn,Events,Conditions,WindDirDegrees,DateUTC
12:25 AM,37.4,35.6,93,29.73,10.0,SSE,4.6,-,N/A,,Overcast,150,2013-02-18 09:25:00
12:53 AM,37.9,35.1,89,29.73,10.0,Calm,Calm,-,0.00,Rain,Light Rain,0,2013-02-18 09:53:00
1:53 AM,37.9,35.1,89,29.72,10.0,Calm,Calm,-,N/A,,Overcast,0,2013-02-18 10:53:00
2:05 AM,37.4,35.6,93,29.71,10.0,Calm,Calm,-,N/A,,Overcast,0,2013-02-18 11:05:00
2:20 AM,37.4,35.6,93,29.71,10.0,Calm,Calm,-,N/A,,Overcast,0,2013-02-18 11:20:00
2:49 AM,37.4,35.6,93,29.70,10.0,Calm,Calm,-,N/A,,Overcast,0,2013-02-18 11:49:00
3:53 AM,37.9,35.1,89,29.69,10.0,NE,6.9,-,N/A,,Overcast,50,2013-02-18 12:53:00
4:53 AM,37.0,35.1,93,29.68,10.0,NE,6.9,-,N/A,,Overcast,50,2013-02-18 13:53:00
5:53 AM,37.0,35.1,93,29.68,10.0,NE,4.6,-,N/A,,Overcast,40,2013-02-18 14:53:00
6:53 AM,37.0,35.1,93,29.67,10.0,NNE,5.8,-,N/A,,Mostly Cloudy,20,2013-02-18 15:53:00
7:53 AM,37.9,35.1,89,29.67,10.0,NNE,4.6,-,N/A,,Overcast,30,2013-02-18 16:53:00
8:53 AM,39.0,35.1,86,29.67,10.0,NNE,5.8,-,N/A,,Overcast,30,2013-02-18 17:53:00
9:53 AM,41.0,35.1,79,29.67,10.0,Calm,Calm,-,N/A,,Scattered Clouds,0,2013-02-18 18:53:00
10:53 AM,42.1,35.1,76,29.68,10.0,Calm,Calm,-,N/A,,Scattered Clouds,0,2013-02-18 19:53:00
12:49 PM,44.6,35.6,71,29.69,10.0,NE,4.6,-,N/A,,Overcast,50,2013-02-18 21:49:00
12:53 PM,44.1,35.1,71,29.70,10.0,Calm,Calm,-,N/A,,Overcast,0,2013-02-18 21:53:00
1:51 PM,42.8,33.8,70,29.70,10.0,NNE,3.5,-,N/A,,Overcast,30,2013-02-18 22:51:00
1:53 PM,43.0,34.0,71,29.71,10.0,NNE,4.6,-,N/A,,Overcast,20,2013-02-18 22:53:00
2:12 PM,42.8,33.8,70,29.70,10.0,NNE,9.2,-,N/A,,Overcast,30,2013-02-18 23:12:00
2:43 PM,44.6,35.6,71,29.71,10.0,NE,6.9,-,N/A,,Overcast,40,2013-02-18 23:43:00
2:51 PM,42.8,33.8,70,29.70,10.0,NNE,10.4,-,N/A,,Overcast,20,2013-02-18 23:51:00
2:53 PM,43.0,35.1,74,29.71,10.0,NNE,10.4,-,N/A,,Overcast,20,2013-02-18 23:53:00
3:24 PM,42.8,35.6,76,29.71,10.0,NNE,8.1,-,N/A,,Overcast,30,2013-02-19 00:24:00
3:37 PM,42.8,35.6,76,29.71,10.0,NNE,10.4,-,N/A,,Overcast,30,2013-02-19 00:37:00
3:53 PM,41.0,36.0,82,29.72,10.0,NNE,6.9,-,N/A,,Overcast,30,2013-02-19 00:53:00
4:53 PM,39.0,36.0,89,29.73,10.0,NNE,6.9,-,N/A,,Mostly Cloudy,30,2013-02-19 01:53:00
5:53 PM,37.9,35.1,89,29.75,10.0,Calm,Calm,-,N/A,,Mostly Cloudy,0,2013-02-19 02:53:00
6:53 PM,37.0,34.0,89,29.77,10.0,Calm,Calm,-,N/A,,Mostly Cloudy,0,2013-02-19 03:53:00
7:53 PM,37.0,34.0,89,29.78,10.0,Calm,Calm,-,N/A,,Overcast,0,2013-02-19 04:53:00
8:53 PM,37.0,35.1,93,29.79,10.0,NE,4.6,-,N/A,,Overcast,50,2013-02-19 05:53:00
9:53 PM,37.0,35.1,93,29.82,10.0,Calm,Calm,-,N/A,,Overcast,0,2013-02-19 06:53:00
10:53 PM,36.0,34.0,93,29.82,10.0,Calm,Calm,-,N/A,,Overcast,0,2013-02-19 07:53:00
11:53 PM,37.0,34.0,89,29.83,10.0,ENE,3.5,-,N/A,,Overcast,60,2013-02-19 08:53:00